DW5852 Weather Reports


Display with metric or nautical units.
time (UTC)temp
F
wind
direction
speed
MPH
gust
MPH
rain 1hr
in
rain 24hr
in
rain mn
in
humidity
%
barometer
mb
20190418222707 62 183 6.0 7.0 0.00 0.02 0.00 31 1022.3
20190418222207 62 146 7.0 12.0 0.00 0.02 0.00 31 1022.2
20190418221707 62 159 2.0 10.0 0.00 0.02 0.00 31 1022.2
20190418221207 62 183 1.0 12.0 0.00 0.02 0.00 32 1022.3
20190418220707 63 194 8.0 10.0 0.00 0.02 0.00 32 1022.2
20190418220207 62 155 6.0 12.0 0.00 0.02 0.00 33 1022.1
20190418215708 62 142 0.0 11.0 0.00 0.02 0.00 31 1022.2
20190418215207 62 120 4.0 13.0 0.00 0.02 0.00 34 1022.0
20190418214707 62 154 4.0 9.0 0.00 0.02 0.00 35 1022.1
20190418214208 61 146 8.0 12.0 0.00 0.02 0.00 36 1022.1
20190418213708 60 188 6.0 13.0 0.00 0.02 0.00 36 1022.1
20190418213207 61 207 4.0 13.0 0.00 0.02 0.00 36 1022.2
20190418212707 61 153 7.0 15.0 0.00 0.02 0.00 36 1022.0
20190418212208 61 148 3.0 14.0 0.00 0.02 0.00 36 1022.2
20190418211707 62 153 12.0 15.0 0.00 0.02 0.00 36 1022.1
20190418211207 62 183 3.0 9.0 0.00 0.02 0.00 37 1022.2
20190418210708 61 266 6.0 11.0 0.00 0.02 0.00 37 1022.1
20190418210207 62 198 3.0 12.0 0.00 0.02 0.00 37 1021.9
20190418205707 61 218 5.0 11.0 0.00 0.02 0.00 38 1022.0
20190418205207 61 163 9.0 10.0 0.00 0.02 0.00 38 1022.0
20190418204708 61 177 10.0 10.0 0.00 0.03 0.00 40 1022.0
20190418204207 60 167 4.0 10.0 0.00 0.03 0.00 40 1022.1
20190418203708 60 151 7.0 14.0 0.00 0.03 0.00 41 1022.1
20190418203207 61 169 7.0 13.0 0.00 0.03 0.00 40 1022.0
20190418202708 61 147 0.0 11.0 0.00 0.03 0.00 40 1022.0
20190418202208 61 77 4.0 11.0 0.00 0.03 0.00 39 1022.0
20190418201707 61 122 3.0 11.0 0.00 0.03 0.00 40 1021.9
20190418201207 61 128 0.0 10.0 0.00 0.03 0.00 39 1021.9
20190418200708 61 89 2.0 10.0 0.00 0.03 0.00 36 1021.9
20190418200208 61 126 1.0 5.0 0.00 0.03 0.00 36 1022.0
20190418195707 61 166 2.0 7.0 0.00 0.03 0.00 35 1021.9
20190418195207 61 85 0.0 12.0 0.00 0.03 0.00 33 1022.0
20190418194707 61 139 0.0 8.0 0.00 0.03 0.00 34 1021.9
20190418194207 61 145 0.0 4.0 0.00 0.03 0.00 34 1021.8
20190418193707 60 200 0.0 9.0 0.00 0.03 0.00 33 1021.7
20190418193208 60 142 4.0 9.0 0.00 0.03 0.00 35 1021.7
20190418192707 59 101 0.0 8.0 0.00 0.03 0.00 34 1021.6
20190418192207 59 100 5.0 8.0 0.00 0.03 0.00 35 1021.5
20190418191707 59 125 0.0 6.0 0.00 0.03 0.00 35 1021.5
20190418191207 59 93 1.0 12.0 0.00 0.03 0.00 33 1021.5
20190418190707 59 142 2.0 11.0 0.00 0.03 0.00 33 1021.5
20190418190207 60 110 0.0 10.0 0.00 0.03 0.00 33 1021.3
20190418185707 59 135 1.0 3.0 0.00 0.03 0.00 35 1021.4
20190418185207 57 63 3.0 5.0 0.00 0.03 0.00 35 1021.3
20190418184708 56 89 0.0 1.0 0.00 0.03 0.00 36 1021.4
20190418184207 55 0 0.0 5.0 0.00 0.03 0.00 37 1021.4
20190418183707 55 93 1.0 9.0 0.00 0.03 0.00 38 1021.4
20190418183207 55 70 7.0 12.0 0.00 0.03 0.00 37 1021.3
20190418182707 56 30 2.0 9.0 0.00 0.03 0.00 36 1021.2
20190418182208 56 221 0.0 7.0 0.00 0.03 0.00 36 1021.3
20190418181707 56 46 4.0 5.0 0.00 0.03 0.00 37 1021.4
20190418181208 56 150 0.0 6.0 0.00 0.03 0.00 37 1021.3
20190418180708 54 148 0.0 6.0 0.00 0.03 0.00 39 1021.4
20190418180207 55 45 1.0 7.0 0.00 0.03 0.00 37 1021.3
20190418175707 55 281 0.0 2.0 0.00 0.03 0.00 38 1021.4
20190418175207 55 129 0.0 7.0 0.00 0.03 0.00 38 1021.5
20190418174707 55 106 0.0 7.0 0.00 0.03 0.00 37 1021.5
20190418174207 55 94 0.0 1.0 0.00 0.03 0.00 37 1021.4
20190418173707 54 152 0.0 2.0 0.00 0.03 0.00 37 1021.4
20190418173207 55 70 0.0 4.0 0.00 0.03 0.00 36 1021.4
20190418172707 55 166 0.0 3.0 0.00 0.03 0.00 39 1021.3
20190418172207 53 152 0.0 6.0 0.00 0.03 0.00 39 1021.2
20190418171707 54 80 1.0 6.0 0.00 0.03 0.00 39 1021.1
20190418171207 53 190 0.0 6.0 0.00 0.03 0.00 40 1021.1
20190418170707 53 142 1.0 6.0 0.00 0.03 0.00 40 1021.0
20190418170207 52 42 0.0 6.0 0.00 0.03 0.00 38 1021.1
20190418165707 52 73 0.0 3.0 0.00 0.03 0.00 39 1021.0
20190418165207 52 164 2.0 3.0 0.00 0.03 0.00 38 1021.0
20190418164708 51 113 0.0 5.0 0.00 0.03 0.00 40 1021.1
20190418164207 51 96 5.0 6.0 0.00 0.03 0.00 41 1021.0
20190418163707 51 27 4.0 10.0 0.00 0.03 0.00 39 1020.9
20190418163207 50 65 0.0 10.0 0.00 0.03 0.00 42 1020.9
20190418162708 50 56 4.0 5.0 0.00 0.03 0.00 42 1020.8
20190418162207 50 73 4.0 7.0 0.00 0.03 0.00 41 1020.8
20190418161711 50 65 0.0 8.0 0.00 0.03 0.00 42 1020.7
20190418161208 50 102 0.0 7.0 0.00 0.03 0.00 41 1020.7
20190418160707 50 38 0.0 7.0 0.00 0.03 0.00 44 1020.7
20190418160207 49 139 0.0 8.0 0.00 0.03 0.00 44 1020.6
20190418155708 49 37 1.0 10.0 0.00 0.03 0.00 45 1020.5
20190418155207 48 25 0.0 13.0 0.00 0.03 0.00 44 1020.5
20190418154707 49 58 5.0 18.0 0.00 0.03 0.00 43 1020.5
20190418154208 49 25 3.0 8.0 0.00 0.03 0.00 42 1020.4
20190418153708 48 43 0.0 7.0 0.00 0.03 0.00 43 1020.2
20190418153207 48 26 0.0 11.0 0.00 0.03 0.00 43 1020.3
20190418152707 49 34 3.0 11.0 0.00 0.03 0.00 44 1020.3
20190418152207 48 82 0.0 5.0 0.00 0.03 0.00 46 1020.3
20190418151707 48 20 0.0 9.0 0.00 0.03 0.00 45 1020.3
20190418151207 48 61 0.0 9.0 0.00 0.03 0.00 47 1020.1
20190418150707 47 308 1.0 13.0 0.00 0.03 0.00 49 1019.9
20190418150207 47 49 2.0 13.0 0.00 0.03 0.00 47 1020.1
20190418145707 47 290 0.0 7.0 0.00 0.03 0.00 53 1020.0
20190418145207 47 352 1.0 9.0 0.00 0.03 0.00 52 1019.9
20190418144707 47 325 0.0 6.0 0.00 0.03 0.00 56 1019.8
20190418144207 47 73 0.0 9.0 0.00 0.03 0.00 53 1019.8
20190418143707 47 73 0.0 9.0 0.00 0.03 0.00 54 1019.7
20190418143207 46 113 0.0 6.0 0.00 0.03 0.00 57 1019.5
20190418142707 46 359 2.0 5.0 0.00 0.03 0.00 57 1019.5
20190418142207 46 75 0.0 2.0 0.00 0.03 0.00 60 1019.4
20190418141708 46 65 0.0 4.0 0.00 0.03 0.00 63 1019.3
20190418141207 46 71 0.0 2.0 0.00 0.03 0.00 62 1019.2
20190418140707 45 354 0.0 1.0 0.00 0.03 0.00 65 1019.1
20190418140207 45 53 0.0 3.0 0.00 0.03 0.00 66 1019.0
20190418135707 45 36 1.0 7.0 0.00 0.03 0.00 69 1018.8
20190418135207 45 73 0.0 0.0 0.00 0.03 0.00 68 1018.8
20190418134707 44 80 0.0 4.0 0.00 0.03 0.00 68 1018.5
20190418134207 44 55 4.0 1.0 0.00 0.03 0.00 69 1018.3
20190418133707 44 47 0.0 3.0 0.00 0.03 0.00 68 1018.1
20190418133207 43 25 0.0 1.0 0.00 0.03 0.00 68 1018.2
20190418132707 43 20 0.0 1.0 0.00 0.03 0.00 67 1018.2
20190418132207 43 75 0.0 4.0 0.00 0.03 0.00 67 1018.1
20190418131707 43 338 0.0 0.0 0.00 0.03 0.00 66 1017.9
20190418131207 43 305 0.0 0.0 0.00 0.03 0.00 66 1017.8
20190418130707 43 9 0.0 2.0 0.00 0.03 0.00 66 1017.8
20190418130207 42 350 0.0 4.0 0.00 0.03 0.00 66 1017.8
20190418125707 42 23 0.0 1.0 0.00 0.03 0.00 68 1017.7
20190418125207 41 30 0.0 2.0 0.00 0.03 0.00 69 1017.6
20190418124707 40 77 0.0 1.0 0.00 0.03 0.00 71 1017.5
20190418124207 40 104 0.0 2.0 0.00 0.03 0.00 72 1017.3
20190418123707 39 84 0.0 2.0 0.00 0.03 0.00 73 1017.3
20190418123207 40 359 0.0 6.0 0.00 0.03 0.00 73 1017.2
20190418122707 39 60 0.0 4.0 0.00 0.03 0.00 75 1017.1
20190418122207 39 46 0.0 7.0 0.00 0.03 0.00 75 1017.0
20190418121707 39 43 1.0 5.0 0.00 0.03 0.00 77 1017.0
20190418121207 39 77 0.0 6.0 0.00 0.03 0.00 77 1017.0
20190418120707 39 44 0.0 7.0 0.00 0.03 0.00 78 1017.1
20190418120209 39 290 0.0 5.0 0.00 0.03 0.00 80 1017.0
20190418115707 38 340 2.0 6.0 0.00 0.03 0.00 84 1017.0
20190418115207 37 28 0.0 4.0 0.00 0.03 0.00 88 1017.0
20190418114707 37 355 0.0 4.0 0.00 0.03 0.00 93 1017.0
20190418114207 37 5 0.0 3.0 0.00 0.03 0.00 96 1016.9
20190418113707 36 10 0.0 2.0 0.00 0.03 0.00 96 1016.9
20190418113207 35 12 0.0 0.0 0.00 0.03 0.00 96 1016.9
20190418112707 35 10 0.0 0.0 0.00 0.03 0.00 95 1017.0
20190418112207 35 233 0.0 0.0 0.00 0.03 0.00 95 1017.1
20190418111707 35 238 0.0 0.0 0.00 0.03 0.00 95 1017.0
20190418111207 35 238 0.0 0.0 0.00 0.03 0.00 95 1016.9
20190418110707 36 239 0.0 0.0 0.00 0.03 0.00 94 1016.9
20190418110208 36 239 0.0 0.0 0.00 0.03 0.00 95 1016.6
20190418105707 36 239 0.0 0.0 0.00 0.03 0.00 95 1016.7
20190418105207 37 262 0.0 0.0 0.00 0.03 0.00 95 1016.7
20190418104707 37 255 0.0 2.0 0.00 0.03 0.00 95 1016.6
20190418104207 37 344 0.0 2.0 0.00 0.03 0.00 95 1016.8
20190418103708 37 354 0.0 4.0 0.00 0.03 0.00 95 1016.7
20190418103208 37 305 0.0 4.0 0.00 0.03 0.00 95 1016.9
20190418102708 37 3 0.0 2.0 0.00 0.03 0.00 95 1016.8
20190418102208 37 36 1.0 2.0 0.00 0.03 0.00 94 1016.8
20190418101707 37 45 0.0 8.0 0.00 0.03 0.00 94 1016.9
20190418101208 36 55 2.0 2.0 0.00 0.03 0.00 94 1016.7
20190418100707 37 106 0.0 5.0 0.00 0.03 0.00 93 1016.6
20190418100208 37 44 0.0 3.0 0.00 0.03 0.00 93 1016.5
20190418095708 37 80 0.0 1.0 0.00 0.03 0.00 93 1016.3
20190418095208 37 115 0.0 1.0 0.00 0.03 0.00 93 1016.2
20190418094708 37 58 0.0 1.0 0.00 0.03 0.00 93 1016.2
20190418094208 37 51 0.0 1.0 0.00 0.03 0.00 94 1016.2
20190418093708 36 79 0.0 0.0 0.00 0.03 0.00 93 1016.2
20190418093208 36 314 0.0 0.0 0.00 0.03 0.00 91 1016.3
20190418092707 37 314 0.0 0.0 0.00 0.03 0.00 91 1016.3
20190418092207 37 321 0.0 0.0 0.00 0.03 0.00 91 1016.4
20190418091208 37 101 0.0 0.0 0.00 0.03 0.00 90 1016.3
20190418090708 38 101 0.0 0.0 0.00 0.03 0.00 90 1016.2
20190418090208 38 187 0.0 0.0 0.00 0.03 0.00 89 1016.1
20190418085707 38 321 0.0 0.0 0.00 0.03 0.00 88 1015.9
20190418085207 38 336 0.0 0.0 0.00 0.03 0.00 88 1016.0
20190418084707 39 336 0.0 0.0 0.00 0.03 0.00 88 1016.0
20190418084208 39 335 0.0 0.0 0.00 0.03 0.00 89 1016.3
20190418083707 38 336 0.0 0.0 0.00 0.03 0.00 88 1016.4
20190418083208 39 25 0.0 0.0 0.00 0.03 0.00 86 1016.4
20190418082708 39 25 0.0 0.0 0.00 0.03 0.00 85 1016.4
20190418082208 40 24 0.0 0.0 0.00 0.03 0.00 85 1016.4
20190418081707 40 3 0.0 1.0 0.00 0.03 0.00 85 1016.5
20190418081207 40 26 0.0 1.0 0.00 0.03 0.00 85 1016.6
20190418080707 40 358 0.0 2.0 0.00 0.03 0.00 85 1016.7
20190418080208 40 351 0.0 1.0 0.00 0.03 0.00 85 1016.6
20190418075707 40 331 0.0 2.0 0.00 0.03 0.00 86 1016.7
20190418075207 40 18 0.0 2.0 0.00 0.03 0.00 87 1016.9
20190418074708 40 266 0.0 0.0 0.00 0.03 0.00 86 1016.9
20190418074208 40 343 0.0 0.0 0.00 0.03 0.00 86 1017.0
20190418073707 40 321 0.0 1.0 0.00 0.03 0.00 87 1017.0
20190418073207 39 330 0.0 0.0 0.00 0.03 0.00 87 1017.1
20190418072707 39 322 0.0 0.0 0.00 0.03 0.00 87 1017.2
20190418072208 40 321 0.0 0.0 0.00 0.03 0.00 88 1017.1
20190418071707 40 31 0.0 0.0 0.00 0.03 0.00 89 1017.1
20190418071221 39 46 0.0 0.0 0.00 0.03 0.00 89 1017.2
20190418070707 39 68 0.0 0.0 0.00 0.03 0.00 89 1017.3
20190418070207 39 98 0.0 0.0 0.00 0.03 0.00 87 1017.3
20190418065708 39 98 0.0 0.0 0.00 0.03 0.00 87 1017.3
20190418065207 40 98 0.0 0.0 0.00 0.03 0.00 89 1017.4
20190418064707 39 98 0.0 0.0 0.00 0.03 0.00 89 1017.5
20190418064208 39 98 0.0 0.0 0.00 0.03 0.00 88 1017.5
20190418063707 40 99 0.0 0.0 0.00 0.03 0.00 89 1017.5
20190418063207 40 98 0.0 0.0 0.01 0.03 0.00 88 1017.7
20190418062708 40 98 0.0 0.0 0.01 0.03 0.00 88 1017.7
20190418062207 40 99 0.0 0.0 0.01 0.03 0.00 87 1017.7
20190418061707 40 99 0.0 0.0 0.01 0.03 0.00 87 1017.7
20190418061208 40 89 0.0 0.0 0.01 0.03 0.00 86 1017.7
20190418060708 41 89 0.0 1.0 0.01 0.03 0.00 86 1017.7
20190418060207 41 53 0.0 1.0 0.01 0.03 0.00 86 1017.6
20190418055707 41 90 0.0 0.0 0.01 0.03 0.00 87 1017.5
20190418055207 41 89 0.0 0.0 0.01 0.03 0.00 85 1017.5
20190418054708 41 106 0.0 0.0 0.01 0.03 0.00 86 1017.5
20190418054207 41 106 0.0 0.0 0.01 0.03 0.00 85 1017.6
20190418053707 41 115 0.0 0.0 0.01 0.03 0.00 86 1017.7
20190418053207 40 194 0.0 0.0 0.00 0.02 0.00 86 1017.6
20190418052708 40 194 0.0 0.0 0.00 0.02 0.00 86 1017.6
20190418052207 41 194 0.0 0.0 0.00 0.02 0.00 86 1017.6
20190418051707 41 194 0.0 0.0 0.00 0.02 0.00 87 1017.5
20190418051207 41 235 0.0 0.0 0.00 0.02 0.00 87 1017.6
20190418050707 41 238 0.0 0.0 0.00 0.02 0.00 86 1017.8
20190418050207 41 239 0.0 0.0 0.00 0.02 0.00 86 1017.8
20190418045707 42 235 0.0 0.0 0.00 0.02 0.00 86 1017.8
20190418045207 42 240 0.0 0.0 0.00 0.02 0.00 86 1018.0
20190418044707 42 238 0.0 0.0 0.00 0.02 0.00 86 1018.1
20190418044208 42 238 0.0 0.0 0.00 0.02 0.00 87 1018.1
20190418043707 42 236 0.0 0.0 0.00 0.02 0.00 87 1018.2
20190418043207 42 236 0.0 0.0 0.00 0.02 0.00 88 1018.2
20190418042707 41 236 0.0 0.0 0.00 0.02 0.00 88 1018.3
20190418042208 41 343 0.0 0.0 0.00 0.02 0.00 88 1018.4
20190418041707 41 342 0.0 0.0 0.00 0.02 0.00 88 1018.5
20190418041207 41 342 0.0 0.0 0.00 0.02 0.00 87 1018.5
20190418040708 41 343 0.0 0.0 0.00 0.02 0.00 87 1018.6
20190418040207 41 343 0.0 0.0 0.00 0.02 0.00 88 1018.6
20190418035707 41 1 0.0 0.0 0.00 0.02 0.00 88 1018.6
20190418035207 41 53 0.0 1.0 0.00 0.02 0.00 87 1018.6
20190418034707 42 42 0.0 1.0 0.00 0.02 0.00 85 1018.5
20190418034207 42 6 0.0 0.0 0.00 0.02 0.00 84 1018.3
20190418033708 42 137 0.0 0.0 0.00 0.02 0.00 84 1018.1
20190418033207 43 76 0.0 1.0 0.00 0.02 0.00 84 1018.3
20190418032707 43 115 0.0 1.0 0.00 0.02 0.00 83 1018.1
20190418032207 43 132 0.0 3.0 0.00 0.02 0.00 83 1018.0
20190418031707 43 102 0.0 0.0 0.00 0.02 0.00 83 1018.0
20190418031207 43 155 0.0 2.0 0.00 0.02 0.00 82 1017.9
20190418030707 43 141 0.0 1.0 0.00 0.02 0.00 80 1017.8
20190418030207 44 243 0.0 1.0 0.00 0.02 0.00 78 1017.6
20190418025707 44 222 0.0 1.0 0.00 0.02 0.00 79 1017.5
20190418025207 43 222 0.0 1.0 0.00 0.02 0.00 81 1017.5
20190418024707 43 265 0.0 1.0 0.00 0.02 0.00 82 1017.7
20190418024207 43 215 0.0 1.0 0.00 0.02 0.00 82 1017.7
20190418023707 43 181 0.0 0.0 0.00 0.02 0.00 84 1017.6
20190418023207 43 181 0.0 2.0 0.00 0.02 0.00 83 1017.7
20190418022707 43 205 0.0 2.0 0.00 0.02 0.00 83 1017.7
20190418022207 44 252 0.0 0.0 0.01 0.02 0.00 82 1017.8
20190418021707 44 98 0.0 3.0 0.01 0.02 0.00 80 1017.8
20190418021207 44 118 0.0 9.0 0.01 0.02 0.00 79 1018.1
20190418020707 44 73 2.0 11.0 0.01 0.02 0.00 78 1018.1
20190418020207 44 15 2.0 15.0 0.01 0.02 0.00 76 1018.0
20190418015708 44 27 0.0 5.0 0.01 0.02 0.00 75 1017.9
20190418015207 44 55 0.0 1.0 0.01 0.02 0.00 76 1017.7
20190418014707 45 305 0.0 1.0 0.01 0.02 0.00 75 1017.5
20190418014207 45 0 0.0 4.0 0.01 0.02 0.00 74 1017.4
20190418013707 45 335 2.0 10.0 0.01 0.02 0.00 73 1017.3
20190418013207 46 148 0.0 14.0 0.01 0.02 0.00 69 1016.8
20190418012707 46 297 1.0 11.0 0.01 0.02 0.00 68 1017.0
20190418012207 47 331 10.0 14.0 0.00 0.01 0.00 64 1016.9
20190418011707 47 68 1.0 14.0 0.00 0.01 0.00 65 1016.6
20190418011208 47 337 5.0 9.0 0.00 0.01 0.00 67 1016.3
20190418010707 47 155 0.0 0.0 0.00 0.01 0.00 72 1016.1
20190418010207 47 200 0.0 0.0 0.00 0.01 0.00 72 1015.9
20190418005707 47 148 0.0 0.0 0.00 0.01 0.00 72 1015.8
20190418005207 47 129 0.0 0.0 0.00 0.01 0.00 72 1015.6
20190418004707 48 150 0.0 1.0 0.00 0.01 0.00 71 1015.5
20190418004207 48 134 0.0 1.0 0.00 0.01 0.00 71 1015.4
20190418003707 48 149 1.0 1.0 0.00 0.01 0.00 71 1015.4
20190418003207 48 159 0.0 5.0 0.00 0.01 0.00 70 1015.0
20190418002707 48 153 4.0 5.0 0.00 0.01 0.00 69 1015.0
20190418002207 49 161 0.0 5.0 0.00 0.01 0.00 66 1014.8
20190418001707 49 134 0.0 6.0 0.00 0.01 0.00 64 1014.8
20190418001207 49 150 0.0 5.0 0.00 0.01 0.00 62 1014.7
20190418000707 50 156 0.0 4.0 0.00 0.01 0.00 60 1014.8
20190418000207 50 160 0.0 4.0 0.00 0.01 0.00 59 1014.7
20190417235707 50 142 0.0 4.0 0.00 0.01 0.00 58 1014.6
20190417235207 50 132 0.0 6.0 0.00 0.01 0.00 59 1014.5
20190417234708 51 141 0.0 3.0 0.00 0.01 0.00 59 1014.3
20190417234207 51 168 3.0 5.0 0.00 0.01 0.00 60 1014.3
20190417233707 50 188 3.0 6.0 0.00 0.01 0.00 60 1014.2
20190417233207 50 163 1.0 3.0 0.00 0.01 0.00 59 1014.3
20190417232707 50 183 0.0 2.0 0.00 0.01 0.00 59 1014.3
20190417232207 50 193 0.0 2.0 0.00 0.01 0.00 60 1014.3
20190417231707 50 262 0.0 1.0 0.00 0.01 0.00 58 1014.3
20190417231207 51 150 0.0 2.0 0.00 0.01 0.00 61 1014.3
20190417230707 50 190 0.0 2.0 0.00 0.01 0.00 61 1014.2
20190417230207 50 260 1.0 1.0 0.00 0.01 0.00 60 1014.2
20190417225707 50 245 0.0 1.0 0.00 0.01 0.00 61 1014.2
20190417225207 50 18 0.0 0.0 0.00 0.01 0.00 61 1014.1
20190417224707 49 241 0.0 1.0 0.00 0.01 0.00 65 1014.1
20190417224207 48 266 0.0 1.0 0.00 0.01 0.00 67 1014.1
20190417223707 48 281 0.0 4.0 0.00 0.01 0.00 68 1014.1
20190417223208 47 283 1.0 4.0 0.00 0.01 0.00 70 1014.0